Location: Izdebno
(52.6670°N, 16.2170°E)
Time: 03:39:34
(UTC+02:00)

SR - Pass Details

Date: 28 February 2024
Orbit: 577 x 862 km, 66.7° (Epoch: 22 April)

Event Time Altitude Azimuth Distance (km) Brightness Sun altitude
Rises 13:27:31 0° 175° (S) 3,436 ? 27.0°
Reaches altitude 10° 13:30:26 10° 162° (SSE) 2,497 ? 26.8°
Maximum altitude 13:34:58 24° 111° (ESE) 1,682 ? 26.5°
Drops below altitude 10° 13:39:25 10° 59° (ENE) 2,436 ? 26.2°
Sets 13:42:12 0° 46° (NE) 3,333 ? 26.0°
